Location: Clifton Park
(41.4873°N, 81.8024°W)
Time: 17:07:54
(UTC+00:00)

Cosmos 2360 - Pass Details

Date: 21 January 2020
Orbit: 847 x 855 km, 70.8° (Epoch: 25 February)

Event Time Altitude Azimuth Distance (km) Brightness Sun altitude
Exits shadow 10:38:02 38° 217° (SW) 1,287 4.9 -24.2°
Maximum altitude 10:40:19 76° 294° (WNW) 885 4.1 -23.7°
Drops below altitude 10° 10:46:04 10° 21° (NNE) 2,494 6.8 -22.7°
Sets 10:48:32 0° 23° (NNE) 3,434 7.6 -22.2°
